Weather History for Palmer, AK

Change the Weather History Date:

Sunday, November 18, 2012

  Actual Average Record
Temperature  
Mean Temperature 12 °F -  
Max Temperature 17 °F 25 °F 50 °F (1964)
Min Temperature 8 °F 11 °F -13 °F (1969)
Degree Days  
Heating Degree Days 52    
Moisture  
Dew Point 9 °F    
Average Humidity 86    
Maximum Humidity 92    
Minimum Humidity 77    
Precipitation  
Precipitation 0.00 in - - ()
Sea Level Pressure  
Sea Level Pressure 29.18 in    
Wind  
Wind Speed 1 mph (ESE)    
Max Wind Speed 5 mph    
Max Gust Speed -    
Visibility 10 miles    
Events      
Averages and records for this station are not official NWS values.
T = Trace of Precipitation, MM = Missing Value Source: NWS Daily Summary

Daily Weather History Graph

Daily Weather History Graph

Search for Another Location

Airport:

Trip Planner

Search our weather history database for the weather conditions in past years. The results will help you decide how hot, cold, wet, or windy it might be!

Date:

Astronomy

Nov. 18, 2012 Rise Set
Actual Time 9:15 AM AKST 4:07 PM AKST
Civil Twilight 8:20 AM AKST 5:01 PM AKST
Nautical Twilight 7:25 AM AKST 5:57 PM AKST
Astronomical Twilight 6:33 AM AKST 6:49 PM AKST
Moon 1:23 PM AKST (11/18) 10:10 PM AKST (11/18)
Length of Visible Light 8h 40m
Length of Day
6h 52m
Waxing Crescent, 31% of the Moon is Illuminated
Nov 18
Waxing Crescent
Nov 20
First Quarter
Nov 28
Full
Dec 6
Last Quarter
Dec 12
New

Hourly Weather History & Observations

Time (AKST) Temp. Windchill Dew Point Humidity Pressure Visibility Wind Dir Wind Speed Gust Speed Precip Events Conditions
12:53 AM 12.9 °F - 10.0 °F 88% 29.08 in 10.0 mi Calm Calm - N/A   Scattered Clouds
1:53 AM 12.9 °F - 10.0 °F 88% 29.08 in 10.0 mi Calm Calm - N/A   Mostly Cloudy
2:53 AM 14.0 °F 6.5 °F 10.9 °F 88% 29.07 in 10.0 mi South 4.6 mph - N/A   Mostly Cloudy
3:53 AM 12.0 °F 5.9 °F 9.0 °F 88% 29.08 in 10.0 mi NE 3.5 mph - N/A   Clear
4:53 AM 14.0 °F - 10.0 °F 84% 29.08 in 10.0 mi Calm Calm - N/A   Clear
5:53 AM 10.9 °F 4.7 °F 9.0 °F 92% 29.09 in 10.0 mi Variable 3.5 mph - N/A   Clear
6:53 AM 12.9 °F - 9.0 °F 84% 29.10 in 10.0 mi Calm Calm - N/A   Clear
7:53 AM 12.0 °F 5.9 °F 7.0 °F 80% 29.12 in 10.0 mi East 3.5 mph - N/A   Clear
8:53 AM 9.0 °F - 5.0 °F 84% 29.14 in 10.0 mi Calm Calm - N/A   Scattered Clouds
9:53 AM 12.0 °F - 9.0 °F 88% 29.15 in 10.0 mi Calm Calm - N/A   Scattered Clouds
10:53 AM 12.0 °F - 8.1 °F 84% 29.17 in 10.0 mi Calm Calm - N/A   Scattered Clouds
11:53 AM 15.1 °F 7.7 °F 12.0 °F 88% 29.18 in 10.0 mi SSE 4.6 mph - N/A   Scattered Clouds
12:53 PM 17.1 °F 11.7 °F 14.0 °F 88% 29.18 in 10.0 mi SE 3.5 mph - N/A   Partly Cloudy
1:53 PM 17.1 °F 11.7 °F 10.9 °F 77% 29.19 in 10.0 mi Variable 3.5 mph - N/A   Partly Cloudy
2:53 PM 16.0 °F - 10.9 °F 81% 29.20 in 10.0 mi Calm Calm - N/A   Partly Cloudy
3:53 PM 14.0 °F - 9.0 °F 80% 29.21 in 10.0 mi Calm Calm - N/A   Partly Cloudy
4:53 PM 14.0 °F - 12.0 °F 92% 29.23 in 10.0 mi Calm Calm - N/A   Clear
5:53 PM 12.9 °F - 10.9 °F 92% 29.24 in 10.0 mi Calm Calm - N/A   Clear
6:53 PM 10.9 °F - 7.0 °F 84% 29.27 in 10.0 mi Calm Calm - N/A   Clear
7:53 PM 10.0 °F - 7.0 °F 87% 29.27 in 10.0 mi Calm Calm - N/A   Clear
8:53 PM 10.9 °F - 8.1 °F 88% 29.29 in 10.0 mi Calm Calm - N/A   Clear
9:53 PM 8.1 °F - 6.1 °F 92% 29.30 in 10.0 mi Calm Calm - N/A   Clear
10:53 PM 9.0 °F - 5.0 °F 84% 29.32 in 10.0 mi Calm Calm - N/A   Clear
11:53 PM 8.1 °F - 6.1 °F 92% 29.33 in 10.0 mi Calm Calm - N/A   Clear